User: anonymous   Login
Location: Cortada Guamacho
(10.5667°N, 67.0833°W)
Time: 07:49:42
(UTC+00:00)
Language:

S3M - Orbit

View from above orbital plane
View from above orbital plane
View from above satellite
View from above satellite

Ground track
Ground track

The orbit data is extracted from the following two-line orbital elements,

1 12508U 81053B   22148.75363922  .00000056  00000-0  41162-4 0  9996
2 12508  82.9597 244.8255 0037268 191.7508 168.2783 13.76395686 63744
Epoch (UTC): 28 May 2022 18:05:14
Eccentricity: 0.0037268
inclination: 82.9597°
perigee height: 949 km
apogee height: 1004 km
right ascension of ascending node: 244.8255°
argument of perigee: 191.7508°
revolutions per day: 13.76395686
mean anomaly at epoch: 168.2783°
orbit number at epoch: 6374

The dashed part of the orbit path shows where the satellite is in the earth's shadow,  

DLR